Location: East Arcadia
(34.1056°N, 118.0176°W)
Time: 00:29:02
(UTC+00:00)

Cosmos 1470 Rocket - Pass Details

Date: 01 April 2023
Orbit: 602 x 632 km, 82.5° (Epoch: 08 June)

Event Time Altitude Azimuth Distance (km) Brightness Sun altitude
Rises 12:55:51 0° 349° (N) 2,891 7.0 -9.8°
Reaches altitude 10° 12:58:06 10° 346° (NNW) 1,977 6.1 -9.3°
Maximum altitude 13:02:24 60° 266° (W) 696 3.5 -8.4°
Drops below altitude 10° 13:06:39 10° 187° (S) 1,947 5.9 -7.6°
Sets 13:08:52 0° 183° (S) 2,843 6.8 -7.1°
